Overview Statistics Trail Chart Weather Telemetry Raw packets
 

This is the latest recevied weather packets stored in our database for station/object DB0MOE-6. If no packets are shown the sender has not sent any weather packets the latest 10 day(s).

<< 30 31 32 33 34 35 36 >>
Time Temp. Humidity Pressure Rain* Wind** Luminosity Snow
1788684015 18.33° C 64% 1006.7 hPa 0 mm - - -
1788683955 18.89° C 64% 1006.7 hPa 0 mm - - -
1788683895 18.89° C 63% 1006.8 hPa 0 mm - - -
1788683835 18.89° C 63% 1006.8 hPa 0 mm - - -
1788683777 19.44° C 63% 1007 hPa 0 mm - - -
1788683717 19.44° C 62% 1006.8 hPa 0 mm - - -
1788683657 18.89° C 62% 1006.9 hPa 0 mm - - -
1788683597 18.89° C 63% 1007 hPa 0 mm - - -
1788683537 19.44° C 64% 1006.9 hPa 0 mm - - -
1788683477 19.44° C 63% 1007.1 hPa 0 mm - - -
1788683431 19.44° C 61% 1007.1 hPa 0 mm - - -
1788683357 19.44° C 61% 1007.1 hPa 0 mm - - -
1788683296 19.44° C 61% 1007.1 hPa 0 mm - - -
1788683236 19.44° C 61% 1007 hPa 0 mm - - -
1788683176 18.89° C 62% 1007 hPa 0 mm - - -
1788683116 18.33° C 62% 1007 hPa 0 mm - - -
1788683056 17.78° C 63% 1007.1 hPa 0 mm - - -
1788682996 17.78° C 64% 1007 hPa 0 mm - - -
1788682936 17.22° C 66% 1007.1 hPa 0 mm - - -
1788682876 17.22° C 67% 1007 hPa 0 mm - - -
1788682816 17.22° C 66% 1007 hPa 0 mm - - -
1788682756 17.22° C 66% 1007 hPa 0 mm - - -
1788682696 17.22° C 66% 1007.1 hPa 0 mm - - -
1788682636 17.22° C 67% 1007.1 hPa 0 mm - - -
1788682576 17.22° C 66% 1007.1 hPa 0 mm - - -

* Rain latest hour (hover to see other rain measurements)
** Current wind speed in m/s (hover to see current wind gust speed)